Regional Weather Roundup
Issued by NWS

Home | Current Version | Previous Version | Graphics & Text | Print | Product List | Glossary On
Versions: 1 2 3 4 5 6 7 8 9 10 11 12 13 14 15 16 17 18 19 20 21 22 23 24 25 26 27 28 29 30 31 32 33 34 35 36 37 38 39 40 41 42 43 44 45 46 47 48 49 50
000
ASUS43 KMPX 301901
RWRMN
WEATHER ROUNDUP FOR MINNESOTA
NATIONAL WEATHER SERVICE TWIN CITIES/CHANHASSEN MN
200 PM CDT TUE JUN 30 2015


NOTE: "FAIR" INDICATES FEW OR NO CLOUDS BELOW 12,000 FEET WITH NO
SIGNIFICANT WEATHER AND/OR OBSTRUCTIONS TO VISIBILITY. N/A MEANS
CURRENT SKY AND/OR WEATHER CONDITIONS ARE NOT AVAILABLE.

MNZ060>063-068>070-302000-
   Twin Cities Metro

CITY           SKY/WX    TMP DP  RH WIND       PRES   REMARKS
TWIN CITIES    PTSUNNY   74  57  55 VRB3      29.93F
ST PAUL        MOSUNNY   75  59  57 NE7       29.93F
CRYSTAL        MOSUNNY   76  56  49 VRB5      29.93S
BLAINE         PTSUNNY   75  57  53 N5        29.94F
LAKEVILLE      MOSUNNY   72  59  64 N7        29.93F
EDEN PRAIRIE   MOSUNNY   76  59  55 N8        29.92F
SOUTH ST PAUL  MOSUNNY   73  55  53 CALM      29.93S
LAKE ELMO      PTSUNNY   73  59  60 N6        29.94F
$$
MNZ001>005-007-008-013>017-022>024-027-028-302000-
   Northwest Minnesota

CITY           SKY/WX    TMP DP  RH WIND       PRES   REMARKS
BEMIDJI        CLOUDY    71  54  54 E6        29.97R
HALLOCK        PTSUNNY   75  63  64 S5        29.93F
ROSEAU         PTSUNNY   72  57  60 CALM      29.96S
WARROAD        PTSUNNY   68  59  73 NE8       29.98S
THIEF RVR FALL CLOUDY    72  57  60 CALM      29.96F
CROOKSTON      CLOUDY    73  57  56 CALM      29.96S
FOSSTON        CLOUDY    72  61  68 CALM      29.97S
DETROIT LAKES  PTSUNNY   73  54  49 N3        29.96F
MOORHEAD       PTSUNNY   73  59  60 CALM      29.95F
PARK RAPIDS    PTSUNNY   73  53  49 NW5       29.96S
MAHNOMEN       FAIR      72  55  56 NE5       29.95F
$$
MNZ006-009>011-018-025>026-302000-
   North Central Minnesota

CITY           SKY/WX    TMP DP  RH WIND       PRES   REMARKS
BAUDETTE       MOSUNNY   70  51  51 CALM      29.97S
FLAG ISLAND    MOSUNNY   66  54  63 S2        29.97F
INTL FALLS     MOSUNNY   68  49  50 E8        29.98F
WASKISH        PTSUNNY   73  55  53 W5        29.96S
BIG FORK       PTSUNNY   70  54  56 CALM      29.97F
LONGVILLE      PTSUNNY   72  55  56 CALM      29.96F
GRAND RAPIDS   MOSUNNY   70  48  46 NW3       29.98R
CRANE LAKE     PTSUNNY   64  46  52 VRB3      29.99F
ORR            MOSUNNY   68  45  42 CALM      29.95F
COOK           PTSUNNY   66  50  55 E5        29.98S
WALKER         FAIR      69  57  66 E3        29.96S
$$
MNZ012-019>021-037-302000-
   Northeast Minnesota

CITY           SKY/WX    TMP DP  RH WIND       PRES   REMARKS
DULUTH         MOSUNNY   61  46  57 E8        29.99R
ELY            MOSUNNY   64  43  45 N6        29.98S
HIBBING        MOSUNNY   68  49  50 VRB6      29.97S
EVELETH        MOSUNNY   66  45  45 NE5       29.98S
DULUTH HARBOR  MOSUNNY   61  52  72 NE7       30.00S
SILVER BAY     SUNNY     57  46  67 SE6       29.99R
GRAND MARAIS     N/A     51  43  74 SW7       30.00S
G MARAIS ARPRT SUNNY     57  43  58 SE6       29.99S
$$
MNZ029>031-032-039>041-046>048-054>057-064-302000-
   West Central Minnesota

CITY           SKY/WX    TMP DP  RH WIND       PRES   REMARKS
FERGUS FALLS   PTSUNNY   73  57  56 CALM      29.93F
WHEATON        CLOUDY    68  59  73 SE6       29.96S
MORRIS         CLOUDY    73  57  56 SE5       29.94R
ALEXANDRIA     PTSUNNY   74  56  53 E7        29.96F
ELBOW LAKE     FAIR      74  58  56 E5        29.94F
WADENA         PTSUNNY   73  55  53 CALM      29.95S
GLENWOOD       CLOUDY    75  57  53 E3        29.95F
APPLETON       CLOUDY    73  61  64 CALM      29.93F
BENSON         CLOUDY    73  57  56 CALM      29.94S
ORTONVILLE     CLOUDY    70  59  68 SE6       29.94S
MADISON        CLOUDY    70  61  73 SE5       29.94F
WILLMAR        FAIR      75  57  53 NE3       29.95F
$$
MNZ033>034-036-042>043-049>051-058-059-302000-
   Central Minnesota

CITY           SKY/WX    TMP DP  RH WIND       PRES   REMARKS
ST CLOUD       MOSUNNY   74  55  51 SE5       29.94F
SAUK CENTRE    FAIR      74  56  52 CALM      29.95F
PAYNESVILLE    PTSUNNY   73  55  54 N3        29.94F
AITKIN         PTSUNNY   73  55  53 CALM      29.95S
PINE RIVER       N/A     73  55  53 CALM      29.99S
BRAINERD       MOSUNNY   74  53  48 VRB5      29.96S
STAPLES        PTSUNNY   72  54  53 CALM      29.96R
LONG PRAIRIE   FAIR      72  55  56 CALM      29.95F
LITTLE FALLS   MOSUNNY   72  52  49 CALM      29.94F
LITCHFIELD     PTSUNNY   77  57  50 NE7       29.94F
BUFFALO        SUNNY     74  56  52 N6        29.95F
MAPLE LAKE     MOSUNNY   76  60  58 N7        29.95S
$$
MNZ037-044-045-052-053-302000-
   East Central Minnesota

CITY           SKY/WX    TMP DP  RH WIND       PRES   REMARKS
PRINCETON      MOSUNNY   75  57  53 CALM      29.95F
MORA           MOSUNNY   70  55  60 CALM      29.97F
CAMBRIDGE      MOSUNNY   73  57  56 CALM      29.93F
RUSH CITY      MOSUNNY   68  57  67 NE6       29.96S
MOOSE LAKE     PTSUNNY   66  59  77 E3        29.96S
HINCKLEY       FAIR      70  55  60 E5        29.96F
CLOQUET        PTSUNNY   64  50  59 NE3       29.98F
MCGREGOR       MOSUNNY   72  54  53 CALM      29.97S
$$
MNZ071>073-080-081-089-090-097-098-302000-
   Southwest Minnesota

CITY           SKY/WX    TMP DP  RH WIND       PRES   REMARKS
MONTEVIDEO     CLOUDY    72  61  68 SE3       29.95S
GRANITE FALLS  CLOUDY    72  60  65 E3        29.95S
CANBY          CLOUDY    71  63  76 E7        29.95F
MARSHALL       CLOUDY    70  61  73 E3          N/A
REDWOOD FALLS  CLOUDY    74  59  59 CALM      29.93F
OLIVIA         CLOUDY    72  55  56 NE6       29.92F
PIPESTONE      PTSUNNY   75  63  64 SE5       29.94F
WINDOM         PTSUNNY   72  61  68 CALM      29.95S
WORTHINGTON    PTSUNNY   73  63  68 N6        29.94F
JACKSON        PTSUNNY   72  63  73 NE5       29.95S
TRACY          CLOUDY    71  63  76 CALM      29.96S
SLAYTON        PTSUNNY   71  63  74 CALM      29.96F
$$
MNZ065>067-074>077-082>085-091>093-302000-
   South Central Minnesota

CITY           SKY/WX    TMP DP  RH WIND       PRES   REMARKS
MANKATO        PTSUNNY   73  59  60 N8        29.93S
NEW ULM        CLOUDY    73  57  56 NE6       29.92F
ST JAMES       CLOUDY    73  63  68 N6        29.94S
FAIRMONT       PTSUNNY   73  59  60 N7        29.93S
GLENCOE        PTSUNNY   76  61  59 NE8       29.93F
FARIBAULT      SUNNY     73  63  68 N7        29.93F
OWATONNA       MOSUNNY   73  59  60 NE8       29.93S
WASECA         MOSUNNY   73  59  60 NE9       29.94S
ALBERT LEA     MOSUNNY   75  57  53 NE7       29.91F
$$
MNZ078>079-086>088-094>096-302000-
   Southeast Minnesota

CITY           SKY/WX    TMP DP  RH WIND       PRES   REMARKS
ROCHESTER      CLOUDY    68  59  73 N9G20     29.94F
RED WING       MOSUNNY   73  55  53 N6        29.91F
STANTON        MOSUNNY   73  59  60 N7        29.93S
DODGE CENTER   MOSUNNY   72  63  73 NE13      29.94S
WINONA         PTSUNNY   72  61  68 N6        29.91F
AUSTIN         MOSUNNY   75  61  60 NE8G16    29.91S
PRESTON        CLOUDY    66  58  76 N8        29.94S
$$
ABBREVIATIONS USED IN REMARKS
   TC - TEMPERATURES IN CELSIUS
  WCI - WIND CHILL INDEX
   HX - HEAT INDEX
  VSB - VISIBILITY
$$



USA.gov is the U.S. government's official web portal to all federal, state and local government web resources and services.